Time,TemperatureF,DewpointF,PressureIn,WindDirection,WindDirectionDegrees,WindSpeedMPH,WindSpeedGustMPH,Humidity,HourlyPrecipIn,Conditions,Clouds,dailyrainin,SoftwareType,DateUTC
2013-05-03 00:02:00,32.0,12.0,-100.00,WSW,257,1.0,3.0,43,0.00,,,-99.99,,2013-05-03 06:02:00,
2013-05-03 00:11:00,34.0,11.0,-100.00,WSW,258,3.0,7.0,37,0.00,,,-99.99,,2013-05-03 06:11:00,
2013-05-03 00:21:00,35.0,9.0,-100.00,WSW,244,6.0,13.0,34,0.00,,,-99.99,,2013-05-03 06:21:00,
2013-05-03 00:32:00,36.0,10.0,-100.00,WSW,240,11.0,14.0,33,0.00,,,-99.99,,2013-05-03 06:32:00,
2013-05-03 00:42:00,36.0,10.0,-100.00,WSW,237,11.0,14.0,33,0.00,,,-99.99,,2013-05-03 06:42:00,
2013-05-03 00:51:00,36.0,10.0,-100.00,SW,236,12.0,15.0,34,0.00,,,-99.99,,2013-05-03 06:51:00,
2013-05-03 01:01:00,36.0,10.0,-100.00,SW,236,12.0,15.0,34,0.00,,,-99.99,,2013-05-03 07:01:00,
2013-05-03 01:11:00,36.0,11.0,-100.00,SW,232,12.0,16.0,35,0.00,,,-99.99,,2013-05-03 07:11:00,
2013-05-03 01:21:00,35.0,11.0,-100.00,SW,232,12.0,16.0,37,0.00,,,-99.99,,2013-05-03 07:21:00,
2013-05-03 01:31:00,35.0,11.0,-100.00,SW,230,11.0,14.0,36,0.00,,,-99.99,,2013-05-03 07:31:00,
2013-05-03 01:42:00,35.0,10.0,-100.00,SW,220,12.0,17.0,35,0.00,,,-99.99,,2013-05-03 07:42:00,
2013-05-03 01:52:00,36.0,10.0,-100.00,SW,220,14.0,20.0,34,0.00,,,-99.99,,2013-05-03 07:52:00,
2013-05-03 02:01:00,36.0,10.0,-100.00,SW,227,14.0,21.0,34,0.00,,,-99.99,,2013-05-03 08:01:00,
2013-05-03 02:11:00,36.0,10.0,-100.00,SW,230,14.0,19.0,33,0.00,,,-99.99,,2013-05-03 08:11:00,
2013-05-03 02:21:00,36.0,9.0,-100.00,SW,232,14.0,21.0,32,0.00,,,-99.99,,2013-05-03 08:21:00,
2013-05-03 02:32:00,36.0,10.0,-100.00,SW,227,15.0,19.0,34,0.00,,,-99.99,,2013-05-03 08:32:00,
2013-05-03 02:42:00,36.0,10.0,-100.00,SW,224,14.0,20.0,34,0.00,,,-99.99,,2013-05-03 08:42:00,
2013-05-03 02:52:00,35.0,10.0,-100.00,SW,222,14.0,18.0,35,0.00,,,-99.99,,2013-05-03 08:52:00,
2013-05-03 03:01:00,36.0,10.0,-100.00,SW,227,14.0,19.0,34,0.00,,,-99.99,,2013-05-03 09:01:00,
2013-05-03 03:11:00,35.0,10.0,-100.00,SW,229,13.0,19.0,35,0.00,,,-99.99,,2013-05-03 09:11:00,
2013-05-03 03:21:00,36.0,10.0,-100.00,SW,224,14.0,20.0,34,0.00,,,-99.99,,2013-05-03 09:21:00,
2013-05-03 03:32:00,35.0,10.0,-100.00,SW,227,13.0,17.0,34,0.00,,,-99.99,,2013-05-03 09:32:00,
2013-05-03 03:42:00,35.0,11.0,-100.00,SW,230,11.0,14.0,36,0.00,,,-99.99,,2013-05-03 09:42:00,
2013-05-03 03:52:00,34.0,10.0,-100.00,SW,226,9.0,14.0,37,0.00,,,-99.99,,2013-05-03 09:52:00,
2013-05-03 04:02:00,33.0,11.0,-100.00,WSW,241,9.0,11.0,39,0.00,,,-99.99,,2013-05-03 10:02:00,
2013-05-03 04:12:00,33.0,11.0,-100.00,WSW,244,7.0,12.0,38,0.00,,,-99.99,,2013-05-03 10:12:00,
2013-05-03 04:22:00,35.0,10.0,-100.00,SW,234,9.0,14.0,35,0.00,,,-99.99,,2013-05-03 10:22:00,
2013-05-03 04:32:00,35.0,10.0,-100.00,SW,223,10.0,14.0,36,0.00,,,-99.99,,2013-05-03 10:32:00,
2013-05-03 04:42:00,35.0,11.0,-100.00,SW,219,11.0,16.0,36,0.00,,,-99.99,,2013-05-03 10:42:00,
2013-05-03 04:52:00,35.0,10.0,-100.00,SSW,213,13.0,19.0,35,0.00,,,-99.99,,2013-05-03 10:52:00,
2013-05-03 05:02:00,35.0,10.0,-100.00,SW,215,13.0,18.0,35,0.00,,,-99.99,,2013-05-03 11:02:00,
2013-05-03 05:11:00,35.0,10.0,-100.00,SW,217,12.0,16.0,35,0.00,,,-99.99,,2013-05-03 11:11:00,
2013-05-03 05:22:00,35.0,11.0,-100.00,SW,220,12.0,16.0,35,0.00,,,-99.99,,2013-05-03 11:22:00,
2013-05-03 05:32:00,36.0,10.0,-100.00,SW,220,13.0,21.0,33,0.00,,,-99.99,,2013-05-03 11:32:00,
2013-05-03 05:42:00,35.0,10.0,-100.00,SW,217,12.0,17.0,35,0.00,,,-99.99,,2013-05-03 11:42:00,
2013-05-03 05:51:00,35.0,9.0,-100.00,SSW,210,12.0,17.0,34,0.00,,,-99.99,,2013-05-03 11:51:00,
2013-05-03 06:01:00,35.0,9.0,-100.00,SSW,212,14.0,18.0,34,0.00,,,-99.99,,2013-05-03 12:01:00,
2013-05-03 06:11:00,35.0,9.0,-100.00,SSW,213,13.0,17.0,34,0.00,,,-99.99,,2013-05-03 12:11:00,
2013-05-03 06:21:00,35.0,9.0,-100.00,SW,220,12.0,17.0,33,0.00,,,-99.99,,2013-05-03 12:21:00,
2013-05-03 06:32:00,36.0,9.0,-100.00,SW,223,14.0,21.0,33,0.00,,,-99.99,,2013-05-03 12:32:00,
2013-05-03 06:42:00,36.0,9.0,-100.00,SW,216,15.0,21.0,32,0.00,,,-99.99,,2013-05-03 12:42:00,
2013-05-03 06:51:00,36.0,9.0,-100.00,SW,215,15.0,21.0,32,0.00,,,-99.99,,2013-05-03 12:51:00,
2013-05-03 07:01:00,37.0,9.0,-100.00,SW,215,14.0,19.0,31,0.00,,,-99.99,,2013-05-03 13:01:00,
2013-05-03 07:11:00,38.0,9.0,-100.00,SW,217,16.0,21.0,30,0.00,,,-99.99,,2013-05-03 13:11:00,
2013-05-03 07:22:00,38.0,10.0,-100.00,SW,217,14.0,21.0,31,0.00,,,-99.99,,2013-05-03 13:22:00,
2013-05-03 07:32:00,38.0,10.0,-100.00,SW,217,14.0,19.0,30,0.00,,,-99.99,,2013-05-03 13:32:00,
2013-05-03 07:42:00,39.0,9.0,-100.00,SW,217,14.0,19.0,29,0.00,,,-99.99,,2013-05-03 13:42:00,
2013-05-03 07:52:00,40.0,9.0,-100.00,SW,220,14.0,19.0,28,0.00,,,-99.99,,2013-05-03 13:52:00,
2013-05-03 08:02:00,40.0,10.0,-100.00,SW,222,14.0,20.0,28,0.00,,,-99.99,,2013-05-03 14:02:00,
2013-05-03 08:11:00,41.0,9.0,-100.00,SW,223,15.0,20.0,27,0.00,,,-99.99,,2013-05-03 14:11:00,
2013-05-03 08:21:00,41.0,9.0,-100.00,SW,224,15.0,21.0,26,0.00,,,-99.99,,2013-05-03 14:21:00,
2013-05-03 08:32:00,42.0,10.0,-100.00,SW,230,16.0,21.0,27,0.00,,,-99.99,,2013-05-03 14:32:00,
2013-05-03 08:42:00,42.0,11.0,-100.00,SW,232,15.0,21.0,27,0.00,,,-99.99,,2013-05-03 14:42:00,
2013-05-03 08:52:00,42.0,11.0,-100.00,SW,226,14.0,18.0,27,0.00,,,-99.99,,2013-05-03 14:52:00,
2013-05-03 09:01:00,43.0,11.0,-100.00,SW,222,16.0,21.0,27,0.00,,,-99.99,,2013-05-03 15:01:00,
2013-05-03 09:11:00,44.0,13.0,-100.00,SW,223,14.0,18.0,27,0.00,,,-99.99,,2013-05-03 15:11:00,
2013-05-03 09:22:00,44.0,10.0,-100.00,SW,232,13.0,19.0,24,0.00,,,-99.99,,2013-05-03 15:22:00,
2013-05-03 09:32:00,44.0,11.0,-100.00,WSW,244,14.0,19.0,25,0.00,,,-99.99,,2013-05-03 15:32:00,
2013-05-03 09:43:00,44.0,9.0,-100.00,WSW,257,15.0,23.0,24,0.00,,,-99.99,,2013-05-03 15:43:00,
2013-05-03 09:53:00,44.0,8.0,-100.00,WSW,239,12.0,19.0,23,0.00,,,-99.99,,2013-05-03 15:53:00,
2013-05-03 10:03:00,45.0,12.0,-100.00,WSW,239,10.0,16.0,26,0.00,,,-99.99,,2013-05-03 16:03:00,
2013-05-03 10:12:00,45.0,10.0,-100.00,West,265,14.0,21.0,23,0.00,,,-99.99,,2013-05-03 16:12:00,
2013-05-03 10:22:00,45.0,9.0,-100.00,West,263,12.0,21.0,23,0.00,,,-99.99,,2013-05-03 16:22:00,
2013-05-03 10:32:00,45.0,11.0,-100.00,WSW,251,13.0,22.0,24,0.00,,,-99.99,,2013-05-03 16:32:00,
2013-05-03 10:42:00,45.0,9.0,-100.00,WSW,240,13.0,20.0,23,0.00,,,-99.99,,2013-05-03 16:42:00,
2013-05-03 10:52:00,46.0,10.0,-100.00,SW,233,12.0,20.0,23,0.00,,,-99.99,,2013-05-03 16:52:00,
2013-05-03 11:02:00,46.0,8.0,-100.00,WSW,244,13.0,20.0,21,0.00,,,-99.99,,2013-05-03 17:02:00,
2013-05-03 11:12:00,46.0,8.0,-100.00,WSW,253,16.0,21.0,20,0.00,,,-99.99,,2013-05-03 17:12:00,
2013-05-03 11:23:00,46.0,7.0,-100.00,West,260,12.0,19.0,20,0.00,,,-99.99,,2013-05-03 17:23:00,
2013-05-03 11:32:00,46.0,9.0,-100.00,West,264,14.0,22.0,22,0.00,,,-99.99,,2013-05-03 17:32:00,
2013-05-03 11:42:00,47.0,10.0,-100.00,West,264,14.0,19.0,21,0.00,,,-99.99,,2013-05-03 17:42:00,
2013-05-03 11:51:00,47.0,11.0,-100.00,West,265,16.0,22.0,23,0.00,,,-99.99,,2013-05-03 17:51:00,
2013-05-03 12:01:00,47.0,9.0,-100.00,West,263,14.0,22.0,21,0.00,,,-99.99,,2013-05-03 18:01:00,
2013-05-03 12:12:00,47.0,12.0,-100.00,West,267,12.0,19.0,24,0.00,,,-99.99,,2013-05-03 18:12:00,
2013-05-03 12:21:00,48.0,11.0,-100.00,West,265,12.0,21.0,23,0.00,,,-99.99,,2013-05-03 18:21:00,
2013-05-03 12:32:00,48.0,13.0,-100.00,WSW,243,13.0,22.0,24,0.00,,,-99.99,,2013-05-03 18:32:00,
2013-05-03 12:42:00,48.0,12.0,-100.00,WSW,254,10.0,19.0,23,0.00,,,-99.99,,2013-05-03 18:42:00,
2013-05-03 12:51:00,49.0,11.0,-100.00,WSW,246,14.0,21.0,22,0.00,,,-99.99,,2013-05-03 18:51:00,
2013-05-03 13:01:00,49.0,13.0,-100.00,West,263,10.0,20.0,23,0.00,,,-99.99,,2013-05-03 19:01:00,
2013-05-03 13:11:00,49.0,12.0,-100.00,WSW,251,10.0,19.0,23,0.00,,,-99.99,,2013-05-03 19:11:00,
2013-05-03 13:21:00,49.0,13.0,-100.00,WSW,239,13.0,26.0,24,0.00,,,-99.99,,2013-05-03 19:21:00,
2013-05-03 13:32:00,50.0,12.0,-100.00,WSW,253,14.0,22.0,22,0.00,,,-99.99,,2013-05-03 19:32:00,
2013-05-03 13:41:00,50.0,14.0,-100.00,SW,233,11.0,24.0,24,0.00,,,-99.99,,2013-05-03 19:41:00,
2013-05-03 13:52:00,50.0,11.0,-100.00,WSW,247,17.0,21.0,20,0.00,,,-99.99,,2013-05-03 19:52:00,
2013-05-03 14:02:00,50.0,12.0,-100.00,SW,234,10.0,16.0,21,0.00,,,-99.99,,2013-05-03 20:02:00,
2013-05-03 14:11:00,50.0,8.0,-100.00,WNW,282,11.0,17.0,18,0.00,,,-99.99,,2013-05-03 20:11:00,
2013-05-03 14:21:00,51.0,10.0,-100.00,WNW,284,12.0,19.0,19,0.00,,,-99.99,,2013-05-03 20:21:00,
2013-05-03 14:31:00,51.0,9.0,-100.00,WSW,253,9.0,19.0,18,0.00,,,-99.99,,2013-05-03 20:31:00,
2013-05-03 14:42:00,51.0,12.0,-100.00,WSW,243,11.0,19.0,21,0.00,,,-99.99,,2013-05-03 20:42:00,
2013-05-03 14:52:00,52.0,14.0,-100.00,West,271,11.0,20.0,22,0.00,,,-99.99,,2013-05-03 20:52:00,
2013-05-03 15:01:00,51.0,13.0,-100.00,WSW,248,12.0,18.0,21,0.00,,,-99.99,,2013-05-03 21:01:00,
2013-05-03 15:11:00,52.0,15.0,-100.00,WSW,241,11.0,17.0,23,0.00,,,-99.99,,2013-05-03 21:11:00,
2013-05-03 15:21:00,53.0,15.0,-100.00,WSW,244,11.0,17.0,22,0.00,,,-99.99,,2013-05-03 21:21:00,
2013-05-03 15:33:00,52.0,14.0,-100.00,WSW,244,10.0,17.0,22,0.00,,,-99.99,,2013-05-03 21:33:00,
2013-05-03 15:42:00,52.0,15.0,-100.00,WNW,288,12.0,17.0,22,0.00,,,-99.99,,2013-05-03 21:42:00,
2013-05-03 15:52:00,52.0,13.0,-100.00,WNW,289,12.0,17.0,20,0.00,,,-99.99,,2013-05-03 21:52:00,
2013-05-03 16:02:00,53.0,13.0,-100.00,West,270,12.0,16.0,20,0.00,,,-99.99,,2013-05-03 22:02:00,
2013-05-03 16:12:00,52.0,13.0,-100.00,West,271,12.0,20.0,20,0.00,,,-99.99,,2013-05-03 22:12:00,
2013-05-03 16:22:00,52.0,14.0,-100.00,WSW,258,12.0,18.0,22,0.00,,,-99.99,,2013-05-03 22:22:00,
2013-05-03 16:32:00,52.0,13.0,-100.00,WNW,284,13.0,19.0,21,0.00,,,-99.99,,2013-05-03 22:32:00,
2013-05-03 16:42:00,52.0,15.0,-100.00,WNW,284,9.0,14.0,22,0.00,,,-99.99,,2013-05-03 22:42:00,
2013-05-03 16:52:00,52.0,15.0,-100.00,West,280,12.0,16.0,22,0.00,,,-99.99,,2013-05-03 22:52:00,
2013-05-03 17:02:00,52.0,12.0,-100.00,West,272,11.0,19.0,20,0.00,,,-99.99,,2013-05-03 23:02:00,
2013-05-03 17:11:00,52.0,13.0,-100.00,West,264,13.0,20.0,21,0.00,,,-99.99,,2013-05-03 23:11:00,
2013-05-03 17:21:00,52.0,12.0,-100.00,West,260,11.0,16.0,20,0.00,,,-99.99,,2013-05-03 23:21:00,
2013-05-03 17:31:00,52.0,15.0,-100.00,WNW,284,9.0,14.0,23,0.00,,,-99.99,,2013-05-03 23:31:00,
2013-05-03 17:41:00,51.0,15.0,-100.00,WNW,301,11.0,18.0,23,0.00,,,-99.99,,2013-05-03 23:41:00,
2013-05-03 17:51:00,52.0,15.0,-100.00,WNW,299,12.0,16.0,23,0.00,,,-99.99,,2013-05-03 23:51:00,
2013-05-03 18:01:00,51.0,12.0,-100.00,WNW,301,8.0,14.0,20,0.00,,,-99.99,,2013-05-04 00:01:00,
2013-05-03 18:11:00,52.0,13.0,-100.00,NW,305,9.0,15.0,21,0.00,,,-99.99,,2013-05-04 00:11:00,
2013-05-03 18:22:00,51.0,13.0,-100.00,NW,306,10.0,16.0,22,0.00,,,-99.99,,2013-05-04 00:22:00,
2013-05-03 18:32:00,-999.0,-99.9,-100.00,NW,313,9.0,14.0,-999,-99.99,,,-99.99,,2013-05-04 00:32:00,
2013-05-03 18:41:00,50.0,13.0,-100.00,NW,326,9.0,14.0,23,0.00,,,-99.99,,2013-05-04 00:41:00,
2013-05-03 18:52:00,50.0,13.0,-100.00,NW,323,9.0,14.0,22,0.00,,,-99.99,,2013-05-04 00:52:00,
2013-05-03 19:01:00,50.0,13.0,-100.00,NNW,343,9.0,13.0,22,0.00,,,-99.99,,2013-05-04 01:01:00,
2013-05-03 19:11:00,47.0,25.0,-100.00,NNE,14,11.0,16.0,42,0.00,,,-99.99,,2013-05-04 01:11:00,
2013-05-03 19:21:00,46.0,27.0,-100.00,North,10,14.0,19.0,48,0.00,,,-99.99,,2013-05-04 01:21:00,
2013-05-03 19:32:00,45.0,28.0,-100.00,North,8,13.0,17.0,51,0.00,,,-99.99,,2013-05-04 01:32:00,
2013-05-03 19:41:00,45.0,27.0,-100.00,North,8,9.0,13.0,49,0.00,,,-99.99,,2013-05-04 01:41:00,
2013-05-03 19:52:00,44.0,27.0,-100.00,North,10,8.0,11.0,51,0.00,,,-99.99,,2013-05-04 01:52:00,
2013-05-03 20:02:00,44.0,27.0,-100.00,North,10,9.0,14.0,50,0.00,,,-99.99,,2013-05-04 02:02:00,
2013-05-03 20:11:00,44.0,26.0,-100.00,North,10,10.0,15.0,49,0.00,,,-99.99,,2013-05-04 02:11:00,
2013-05-03 20:21:00,43.0,27.0,-100.00,North,10,9.0,12.0,54,0.00,,,-99.99,,2013-05-04 02:21:00,
2013-05-03 20:32:00,42.0,27.0,-100.00,North,10,7.0,10.0,54,0.00,,,-99.99,,2013-05-04 02:32:00,
2013-05-03 20:41:00,42.0,27.0,-100.00,North,10,8.0,12.0,56,0.00,,,-99.99,,2013-05-04 02:41:00,
2013-05-03 20:52:00,42.0,27.0,-100.00,North,10,9.0,11.0,55,0.00,,,-99.99,,2013-05-04 02:52:00,
2013-05-03 21:02:00,43.0,25.0,-100.00,North,10,10.0,13.0,50,0.00,,,-99.99,,2013-05-04 03:02:00,
2013-05-03 21:11:00,42.0,26.0,-100.00,North,10,11.0,15.0,51,0.00,,,-99.99,,2013-05-04 03:11:00,
2013-05-03 21:21:00,42.0,26.0,-100.00,North,10,13.0,17.0,53,0.00,,,-99.99,,2013-05-04 03:21:00,
2013-05-03 21:33:00,42.0,26.0,-100.00,North,10,14.0,17.0,53,0.00,,,-99.99,,2013-05-04 03:33:00,
2013-05-03 21:43:00,42.0,27.0,-100.00,North,10,15.0,19.0,55,0.00,,,-99.99,,2013-05-04 03:43:00,
2013-05-03 21:52:00,41.0,27.0,-100.00,North,10,14.0,18.0,57,0.00,,,-99.99,,2013-05-04 03:52:00,
2013-05-03 22:02:00,41.0,27.0,-100.00,North,10,13.0,18.0,57,0.00,,,-99.99,,2013-05-04 04:02:00,
2013-05-03 22:12:00,41.0,27.0,-100.00,North,10,12.0,17.0,58,0.00,,,-99.99,,2013-05-04 04:12:00,
2013-05-03 22:22:00,41.0,26.0,-100.00,North,10,12.0,16.0,55,0.00,,,-99.99,,2013-05-04 04:22:00,
2013-05-03 22:32:00,41.0,27.0,-100.00,North,10,12.0,15.0,58,0.00,,,-99.99,,2013-05-04 04:32:00,
2013-05-03 22:42:00,40.0,27.0,-100.00,North,10,12.0,15.0,59,0.00,,,-99.99,,2013-05-04 04:42:00,
2013-05-03 22:52:00,40.0,27.0,-100.00,North,10,12.0,16.0,59,0.00,,,-99.99,,2013-05-04 04:52:00,
2013-05-03 23:02:00,40.0,27.0,-100.00,North,10,14.0,17.0,59,0.00,,,-99.99,,2013-05-04 05:02:00,
2013-05-03 23:11:00,40.0,27.0,-100.00,North,10,12.0,17.0,59,0.00,,,-99.99,,2013-05-04 05:11:00,
2013-05-03 23:22:00,40.0,27.0,-100.00,North,10,11.0,15.0,59,0.00,,,-99.99,,2013-05-04 05:22:00,
2013-05-03 23:32:00,40.0,27.0,-100.00,North,10,12.0,16.0,60,0.00,,,-99.99,,2013-05-04 05:32:00,
2013-05-03 23:42:00,40.0,27.0,-100.00,North,10,11.0,14.0,60,0.00,,,-99.99,,2013-05-04 05:42:00,
2013-05-03 23:52:00,40.0,27.0,-100.00,North,10,12.0,16.0,61,0.00,,,-99.99,,2013-05-04 05:52:00,